Location: Wheeling
(40.0640°N, 80.7210°W)
Time: 14:13:58
(UTC-05:00)

CUTE 1.7 + AOD 2 - Pass Details

Date: 06 November 2021
Orbit: 592 x 610 km, 97.6° (Epoch: 01 December)

Event Time Altitude Azimuth Distance (km) Brightness Sun altitude
Rises 06:27:59 0° 358° (N) 2,875 ? -17.6°
Reaches altitude 10° 06:30:31 10° 344° (NNW) 1,963 ? -17.1°
Enters shadow 06:31:39 16° 332° (NNW) 1,626 ? -16.9°
